Back to catalog

STARLINK-35721

AliveCommunicationsVLEO
NORAD 67046·PAYLOAD·🇺🇸 United States

Launched Dec 11, 2025 from Cape Canaveral Space Force Station

Loading…

Next Passes (next 24 hours)

TLE

FreshSource: CelesTrak SupGP

Epoch: Sep 14, 2026, 21:34 UTC

1 67046C 25294S   26257.89909722  .00048353  00000+0  17514-2 0  2572
2 67046  43.0032  49.7098 0001782 274.8035 101.8518 15.27552932    17

Track STARLINK-35721 in real time with AllMySat

Download on the App Store